Regional Weather Roundup
Issued by NWS State College, PA

Home | Current Version | Previous Version | Graphics & Text | Print | Product List | Glossary On
Versions: 1 2 3 4 5 6 7 8 9 10 11 12 13 14 15 16 17 18 19 20 21 22 23 24 25 26 27 28 29 30 31 32 33 34 35 36 37 38 39 40 41 42 43 44 45 46 47 48 49 50
000
ASUS41 KCTP 010903
RWRCTP

REGIONAL WEATHER ROUNDUP
NATIONAL WEATHER SERVICE STATE COLLEGE PA
500 AM EDT SAT AUG 01 2015

Note: "fair" indicates few or no clouds below 12,000 feet with no
significant weather and/or obstructions to visibility.

* = STATION THAT DOES NOT REPORT PRECIPITATION /E.G. RAIN...SNOW...ETC/
    THUNDER OR FOG.

PAZ002>004-007>009-013>016-020>023-029>032-011000-
WESTERN PENNSYLVANIA

CITY           SKY/WX    TMP DP  RH WIND       PRES   REMARKS
ERIE           CLOUDY    73  58  59 W3        29.85S
MEADVILLE      CLEAR     63  56  78 SW5       29.89S
FRANKLIN*      CLEAR     61  54  77 W7        29.90F
NEW CASTLE     FAIR      64  60  87 CALM      29.90S
BEAVER COUNTY  NOT AVBL
BUTLER*        PTCLDY    64  57  77 W3        29.91S
PITTSBURGH INT PTCLDY    68  59  73 W3        29.90S
PITTSBURGH     CLOUDY    70  56  61 W8        29.90S
INDIANA*       CLOUDY    64  61  88 CALM      29.93S
LATROBE        NOT AVBL
WASHINGTON CO* NOT AVBL
$$

PAZ004>006-010>012-017>019-024>028-033>037-041-042-045-046-049>053-011000-
CENTRAL PENNSYLVANIA

CITY           SKY/WX    TMP DP  RH WIND       PRES   REMARKS
BRADFORD       CLEAR     60  57  89 CALM      29.88S
DUBOIS         CLEAR     63  58  83 W7        29.88S
CLEARFIELD     PTCLDY    63  59  87 SW7       29.88S
JOHNSTOWN      MOCLDY    66  57  72 SW6       29.92F
ALTOONA        CLOUDY    69  59  70 SW3       29.91S
STATE COLLEGE  PTCLDY    68  60  74 SW9       29.87R
WILLIAMSPORT   MOCLDY    66  61  84 CALM      29.81S
SELINSGROVE    CLOUDY    64  62  93 CALM      29.83S
FT INDIANTOWN  MOCLDY    61  60  97 CALM      29.83S
CAPITAL CITY   PTCLDY    68  59  73 SW3       29.83S
HARRISBURG     PTCLDY    70  62  76 CALM      29.82F
YORK           PTCLDY    67  60  78 CALM      29.84F
$$

PAZ038>040-043-044-047-048-054-055-060>062-067>071-011000-
EASTERN PENNSYLVANIA

CITY           SKY/WX    TMP DP  RH WIND       PRES   REMARKS
SCRANTON       MOCLDY    69  61  75 W5        29.82S
MOUNT POCONO   CLEAR     63  57  81 W6        29.86F
ALLENTOWN      CLEAR     64  61  90 CALM      29.82S
QUAKERTOWN*    SUNNY     64  61  88 CALM      29.84S
READING        CLEAR     67  63  87 CALM      29.81F
LANCASTER      CLEAR     65  62  90 SE3       29.83F
COATESVILLE    MOSUNNY   70  63  78 SW3       29.86S
POTTSTOWN      CLEAR     64  62  93 CALM      29.84F
BLUE BELL      NOT AVBL
DOYLESTOWN     PTCLDY    67  61  81 CALM      29.82S
WILLOW GROVE   NOT AVBL
NORTH PHILA    MOCLDY    76  61  59 SW6       29.83F
PHILADELPHIA   PTCLDY    76  66  71 SW10      29.83S
$$


USA.gov is the U.S. government's official web portal to all federal, state and local government web resources and services.